Weather History for Honolulu, HI

Change the Weather History Date:

Friday, January 4, 2013

  Actual Average Record
Temperature  
Mean Temperature 71 °F 73 °F  
Max Temperature 78 °F 80 °F 85 °F (1987)
Min Temperature 64 °F 67 °F 57 °F (1947)
Degree Days  
Heating Degree Days 0 0  
Month to date heating degree days 0 0  
Since 1 July heating degree days 0 0  
Cooling Degree Days 6 8  
Month to date cooling degree days 21 34  
Year to date cooling degree days 21 34  
Growing Degree Days 21 (Base 50)    
Moisture  
Dew Point 64 °F    
Average Humidity 74    
Maximum Humidity 84    
Minimum Humidity 64    
Precipitation  
Precipitation T in 0.09 in 0.80 in (1968)
Month to date precipitation 0.05 0.37  
Year to date precipitation 0.05 0.37  
Snow  
Snow 0.00 in - - ()
Month to date snowfall 0.0  
Since 1 July snowfall 0.0  
Snow Depth 0.00 in    
Sea Level Pressure  
Sea Level Pressure 30.08 in    
Wind  
Wind Speed 19 mph (NE)    
Max Wind Speed 31 mph    
Max Gust Speed 37 mph    
Visibility 10 miles    
Events Rain    
T = Trace of Precipitation, MM = Missing Value Source: NWS Daily Summary

Daily Weather History Graph

Daily Weather History Graph

Search for Another Location

Airport:

Trip Planner

Search our weather history database for the weather conditions in past years. The results will help you decide how hot, cold, wet, or windy it might be!

Date:

Astronomy

Jan. 04, 2013 Rise Set
Actual Time 7:10 AM HST 6:03 PM HST
Civil Twilight 6:46 AM HST 6:27 PM HST
Nautical Twilight 6:18 AM HST 6:55 PM HST
Astronomical Twilight 5:51 AM HST 7:22 PM HST
Moon No Moon Rise 11:57 AM HST (1/4)
Length of Visible Light 11h 41m
Length of Day
10h 53m
Waning Gibbous, 53% of the Moon is Illuminated
Jan 4
Waning Gibbous
Jan 4
Last Quarter
Jan 11
New
Jan 18
First Quarter
Jan 26
Full

Hourly Weather History & Observations

Time (HST) Temp. Dew Point Humidity Pressure Visibility Wind Dir Wind Speed Gust Speed Precip Events Conditions
12:53 AM 72.1 °F 61.9 °F 70% 30.07 in 10.0 mi ENE 13.8 mph 23.0 mph N/A   Mostly Cloudy
1:53 AM 73.0 °F 62.8 °F 70% 30.06 in 10.0 mi NE 15.0 mph 27.6 mph N/A   Mostly Cloudy
2:53 AM 72.0 °F 64.0 °F 76% 30.06 in 10.0 mi NE 16.1 mph 26.5 mph N/A   Mostly Cloudy
3:53 AM 72.0 °F 63.0 °F 73% 30.05 in 10.0 mi NE 16.1 mph 24.2 mph N/A   Scattered Clouds
4:53 AM 71.6 °F 62.4 °F 73% 30.06 in 10.0 mi ENE 16.1 mph 19.6 mph N/A   Partly Cloudy
5:53 AM 71.6 °F 62.8 °F 74% 30.07 in 10.0 mi NE 15.0 mph - N/A   Scattered Clouds
6:53 AM 72.0 °F 62.6 °F 72% 30.08 in 10.0 mi NE 18.4 mph 26.5 mph 0.00 in Rain Light Rain
7:53 AM 71.6 °F 63.3 °F 75% 30.11 in 8.0 mi NE 18.4 mph 25.3 mph 0.00 in Rain Light Rain
8:53 AM 71.8 °F 64.8 °F 78% 30.13 in 7.0 mi NE 13.8 mph 25.3 mph 0.00 in Rain Light Rain
9:05 AM 71.6 °F 64.4 °F 78% 30.13 in 8.0 mi NE 16.1 mph 23.0 mph 0.00 in Rain Light Rain
9:49 AM 71.6 °F 64.4 °F 78% 30.13 in 8.0 mi NE 23.0 mph 29.9 mph 0.00 in Rain Light Rain
9:53 AM 73.6 °F 64.9 °F 74% 30.14 in 10.0 mi NE 13.8 mph 26.5 mph 0.00 in Rain Light Rain
10:53 AM 74.8 °F 66.9 °F 76% 30.12 in 10.0 mi NE 23.0 mph 32.2 mph 0.00 in Rain Light Rain
11:53 AM 75.6 °F 63.1 °F 65% 30.09 in 10.0 mi NE 24.2 mph 29.9 mph 0.00 in Rain Light Rain
12:53 PM 78.3 °F 65.8 °F 65% 30.06 in 10.0 mi NE 17.3 mph 29.9 mph 0.00 in   Scattered Clouds
1:53 PM 77.2 °F 65.1 °F 66% 30.04 in 10.0 mi ENE 25.3 mph 34.5 mph N/A   Scattered Clouds
2:53 PM 77.9 °F 66.6 °F 68% 30.04 in 10.0 mi ENE 23.0 mph 31.1 mph N/A   Mostly Cloudy
3:53 PM 78.1 °F 66.9 °F 68% 30.04 in 10.0 mi ENE 17.3 mph 33.4 mph N/A   Mostly Cloudy
4:53 PM 77.4 °F 66.6 °F 69% 30.04 in 10.0 mi ENE 21.9 mph 28.8 mph 0.00 in   Mostly Cloudy
5:53 PM 73.9 °F 66.7 °F 78% 30.06 in 6.0 mi ENE 19.6 mph 28.8 mph 0.00 in Rain Light Rain
6:53 PM 71.2 °F 65.3 °F 81% 30.09 in 10.0 mi ENE 17.3 mph 25.3 mph 0.00 in Rain Light Rain
7:53 PM 71.4 °F 65.1 °F 80% 30.10 in 10.0 mi ENE 21.9 mph 31.1 mph 0.00 in Rain Light Rain
8:53 PM 72.0 °F 65.3 °F 79% 30.11 in 10.0 mi ENE 20.7 mph 27.6 mph 0.00 in Rain Light Rain
9:53 PM 72.0 °F 65.3 °F 79% 30.12 in 10.0 mi ENE 21.9 mph 32.2 mph 0.00 in Rain Light Rain
10:53 PM 71.4 °F 64.2 °F 78% 30.12 in 10.0 mi ENE 21.9 mph 36.8 mph 0.00 in Rain Light Rain
11:53 PM 71.1 °F 64.4 °F 79% 30.12 in 10.0 mi NE 24.2 mph 29.9 mph 0.00 in   Mostly Cloudy